WXM80 ListenWXM80 Stop

You find our weather info also at:

UK Metoffice

WeatherCloud

Weather Underground

Northeastern Weather Network

AWEKAS

Citizen Weather Observer Program (CWOP)

HAMweather, WeatherForYou, PWS Weather


Weather Underground History page Text

Daily Summary for August 4, 2016 Units:  English    Metric   Both
« Previous Day
Next Day »
Daily Weekly Monthly Yearly Custom
  High: Low: Average:
Temperature: 83.8 °F 60.1 °F 71.8 °F
Dew Point: 70.7 °F 58.4 °F 63.8 °F
Humidity: 98 % 50 % 78 %
Wind Speed: 5.6 mph 0.0 mph 0.7 mph
Wind Gust: 10.0 mph - -
Wind:- - East
Pressure: 30.16 in 30.05 in -
Precipitation: 0.00 in    
Historical Graphs
 
 
Tabular Data for August 4, 2016
Time Temperature Dew Point Pressure Wind Wind Speed Wind Gust Humidity Rainfall Rate (Hourly)
00:08 63.0 °F 59.1 °F 30.14 in Calm     87 % 0.00 in
00:13 62.8 °F 58.9 °F 30.14 in Calm   1.2 mph 87 % 0.00 in
00:18 62.8 °F 58.9 °F 30.14 in Calm     87 % 0.00 in
00:23 62.7 °F 58.8 °F 30.14 in Calm   1.2 mph 87 % 0.00 in
00:29 62.6 °F 59.0 °F 30.14 in Calm     88 % 0.00 in
00:34 62.5 °F 58.9 °F 30.14 in Calm     88 % 0.00 in
00:39 62.4 °F 58.8 °F 30.14 in Calm     88 % 0.00 in
00:44 62.4 °F 59.1 °F 30.14 in Calm     89 % 0.00 in
00:49 62.3 °F 59.0 °F 30.14 in Calm     89 % 0.00 in
00:54 62.3 °F 59.0 °F 30.15 in Calm     89 % 0.00 in
00:59 62.2 °F 58.9 °F 30.14 in Calm     89 % 0.00 in
01:04 62.2 °F 59.2 °F 30.14 in Calm     90 % 0.00 in
01:09 62.1 °F 59.1 °F 30.14 in Calm     90 % 0.00 in
01:14 62.0 °F 59.0 °F 30.14 in Calm     90 % 0.00 in
01:20 62.0 °F 59.0 °F 30.14 in Calm     90 % 0.00 in
01:25 62.0 °F 59.0 °F 30.14 in Calm     90 % 0.00 in
01:30 61.9 °F 58.9 °F 30.13 in Calm     90 % 0.00 in
01:35 61.9 °F 58.9 °F 30.13 in Calm     90 % 0.00 in
01:40 61.8 °F 59.1 °F 30.13 in Calm     91 % 0.00 in
01:45 61.8 °F 59.1 °F 30.13 in Calm     91 % 0.00 in
01:50 61.8 °F 59.1 °F 30.13 in Calm     91 % 0.00 in
01:55 61.8 °F 59.5 °F 30.13 in Calm     92 % 0.00 in
02:00 61.7 °F 59.4 °F 30.13 in Calm     92 % 0.00 in
02:05 61.7 °F 59.4 °F 30.13 in Calm     92 % 0.00 in
02:10 61.7 °F 59.4 °F 30.13 in Calm     92 % 0.00 in
02:16 61.6 °F 59.3 °F 30.13 in Calm     92 % 0.00 in
02:21 61.6 °F 59.3 °F 30.13 in SSE 0.1 mph   92 % 0.00 in
02:26 61.6 °F 59.2 °F 30.13 in Calm     92 % 0.00 in
02:31 61.5 °F 59.2 °F 30.13 in Calm     92 % 0.00 in
02:36 61.4 °F 59.1 °F 30.12 in Calm     92 % 0.00 in
02:41 61.4 °F 59.1 °F 30.12 in Calm     92 % 0.00 in
02:46 61.3 °F 59.0 °F 30.12 in Calm     92 % 0.00 in
02:51 61.3 °F 58.9 °F 30.12 in Calm     92 % 0.00 in
02:56 61.2 °F 58.9 °F 30.12 in Calm     92 % 0.00 in
03:01 61.1 °F 58.8 °F 30.12 in Calm     92 % 0.00 in
03:06 61.1 °F 58.8 °F 30.12 in Calm     92 % 0.00 in
03:11 61.0 °F 59.0 °F 30.12 in Calm     93 % 0.00 in
03:16 61.0 °F 59.0 °F 30.12 in Calm     93 % 0.00 in
03:21 61.0 °F 59.0 °F 30.12 in Calm     93 % 0.00 in
03:26 60.9 °F 58.9 °F 30.12 in Calm     93 % 0.00 in
03:31 60.9 °F 58.9 °F 30.12 in Calm     93 % 0.00 in
03:36 60.8 °F 58.8 °F 30.12 in Calm     93 % 0.00 in
03:41 60.8 °F 58.8 °F 30.12 in Calm     93 % 0.00 in
03:46 60.8 °F 58.8 °F 30.12 in Calm     93 % 0.00 in
03:52 60.8 °F 58.8 °F 30.12 in Calm     93 % 0.00 in
03:57 60.7 °F 58.7 °F 30.12 in Calm     93 % 0.00 in
04:02 60.7 °F 59.0 °F 30.12 in Calm     94 % 0.00 in
04:07 60.7 °F 59.0 °F 30.12 in Calm     94 % 0.00 in
04:12 60.7 °F 59.0 °F 30.12 in Calm     94 % 0.00 in
04:17 60.7 °F 59.0 °F 30.12 in Calm     94 % 0.00 in
04:22 60.7 °F 59.0 °F 30.12 in Calm     94 % 0.00 in
04:27 60.6 °F 58.9 °F 30.12 in Calm     94 % 0.00 in
04:32 60.6 °F 58.9 °F 30.12 in Calm     94 % 0.00 in
04:37 60.6 °F 58.9 °F 30.12 in Calm     94 % 0.00 in
04:43 60.6 °F 58.9 °F 30.12 in Calm     94 % 0.00 in
04:48 60.5 °F 58.8 °F 30.12 in Calm     94 % 0.00 in
04:53 60.5 °F 58.8 °F 30.12 in Calm     94 % 0.00 in
05:03 60.4 °F 58.7 °F 30.13 in Calm     94 % 0.00 in
05:08 60.4 °F 58.7 °F 30.13 in Calm     94 % 0.00 in
05:13 60.4 °F 58.7 °F 30.13 in Calm     94 % 0.00 in
05:18 60.3 °F 58.6 °F 30.13 in Calm     94 % 0.00 in
05:28 60.3 °F 58.6 °F 30.13 in Calm     94 % 0.00 in
05:34 60.2 °F 58.5 °F 30.13 in Calm     94 % 0.00 in
05:39 60.2 °F 58.5 °F 30.13 in Calm     94 % 0.00 in
05:44 60.2 °F 58.5 °F 30.13 in Calm     94 % 0.00 in
05:49 60.2 °F 58.5 °F 30.14 in Calm     94 % 0.00 in
05:54 60.1 °F 58.4 °F 30.14 in Calm     94 % 0.00 in
05:59 60.1 °F 58.4 °F 30.13 in Calm     94 % 0.00 in
06:04 60.1 °F 58.4 °F 30.14 in Calm     94 % 0.00 in
06:09 60.1 °F 58.4 °F 30.14 in Calm     94 % 0.00 in
06:14 60.1 °F 58.4 °F 30.14 in Calm     94 % 0.00 in
06:19 60.1 °F 58.4 °F 30.14 in Calm     94 % 0.00 in
06:22 60.1 °F 58.7 °F 30.14 in Calm     95 % 0.00 in
06:27 60.2 °F 58.8 °F 30.14 in Calm     95 % 0.00 in
06:32 60.3 °F 58.9 °F 30.14 in Calm     95 % 0.00 in
06:37 60.5 °F 59.4 °F 30.14 in Calm     96 % 0.00 in
06:42 60.6 °F 59.5 °F 30.14 in Calm     96 % 0.00 in
06:47 60.9 °F 59.8 °F 30.14 in Calm     96 % 0.00 in
06:52 61.2 °F 60.1 °F 30.14 in Calm     96 % 0.00 in
06:57 61.5 °F 60.6 °F 30.15 in Calm     97 % 0.00 in
07:02 61.9 °F 61.0 °F 30.15 in Calm     97 % 0.00 in
07:07 62.4 °F 61.5 °F 30.15 in Calm     97 % 0.00 in
07:13 63.3 °F 62.4 °F 30.15 in Calm     97 % 0.00 in
07:18 64.1 °F 63.5 °F 30.15 in Calm     98 % 0.00 in
07:23 64.6 °F 64.0 °F 30.15 in Calm     98 % 0.00 in
07:28 65.4 °F 64.8 °F 30.15 in Calm     98 % 0.00 in
07:33 65.8 °F 65.2 °F 30.15 in Calm     98 % 0.00 in
07:38 66.0 °F 65.4 °F 30.15 in SSE 0.4 mph 1.2 mph 98 % 0.00 in
07:43 66.4 °F 65.8 °F 30.15 in Calm     98 % 0.00 in
07:48 67.0 °F 66.4 °F 30.15 in Calm     98 % 0.00 in
07:53 67.4 °F 66.8 °F 30.16 in Calm     98 % 0.00 in
07:58 67.5 °F 66.9 °F 30.15 in SSE 0.8 mph 1.2 mph 98 % 0.00 in
08:04 67.7 °F 67.1 °F 30.15 in NNE 0.1 mph 1.2 mph 98 % 0.00 in
08:09 67.7 °F 67.1 °F 30.15 in Calm   1.2 mph 98 % 0.00 in
08:14 67.8 °F 67.2 °F 30.15 in NNE 1.2 mph 3.5 mph 98 % 0.00 in
08:19 68.0 °F 67.4 °F 30.15 in North 0.5 mph 3.5 mph 98 % 0.00 in
08:24 68.1 °F 67.5 °F 30.15 in North 0.5 mph 2.3 mph 98 % 0.00 in
08:29 68.2 °F 67.3 °F 30.15 in North 0.2 mph 1.2 mph 97 % 0.00 in
08:34 68.2 °F 67.3 °F 30.15 in NNE 0.2 mph 1.2 mph 97 % 0.00 in
08:39 68.4 °F 67.5 °F 30.15 in Calm   1.2 mph 97 % 0.00 in
08:44 68.6 °F 67.7 °F 30.15 in NE 1.5 mph 5.0 mph 97 % 0.00 in
08:50 68.7 °F 67.5 °F 30.15 in NNE 2.0 mph 3.5 mph 96 % 0.00 in
08:55 69.0 °F 67.5 °F 30.14 in ENE 1.1 mph 3.5 mph 95 % 0.00 in
09:00 69.4 °F 67.6 °F 30.14 in NE 0.2 mph 3.0 mph 94 % 0.00 in
09:05 69.8 °F 67.7 °F 30.14 in NE 0.3 mph 3.5 mph 93 % 0.00 in
09:10 70.1 °F 67.3 °F 30.14 in NE 0.6 mph 2.3 mph 91 % 0.00 in
09:15 70.5 °F 67.4 °F 30.14 in ENE 1.5 mph 3.0 mph 90 % 0.00 in
09:20 70.8 °F 67.7 °F 30.14 in ENE 1.9 mph 3.5 mph 90 % 0.00 in
09:25 71.1 °F 67.7 °F 30.14 in NE 2.0 mph 3.5 mph 89 % 0.00 in
09:30 71.3 °F 67.6 °F 30.14 in ENE 0.3 mph 1.2 mph 88 % 0.00 in
09:35 71.4 °F 67.3 °F 30.14 in NE 0.8 mph 3.5 mph 87 % 0.00 in
09:41 71.6 °F 67.9 °F 30.14 in NNE 1.2 mph 4.6 mph 88 % 0.00 in
09:46 71.9 °F 67.8 °F 30.14 in NNE 2.0 mph 5.0 mph 87 % 0.00 in
09:51 72.1 °F 68.0 °F 30.14 in Calm   5.0 mph 87 % 0.00 in
09:56 72.4 °F 67.6 °F 30.14 in ENE 1.2 mph 2.3 mph 85 % 0.00 in
10:01 72.7 °F 67.9 °F 30.14 in ENE 1.7 mph 3.5 mph 85 % 0.00 in
10:06 73.1 °F 67.6 °F 30.14 in NNE 2.6 mph 3.5 mph 83 % 0.00 in
10:11 73.7 °F 68.2 °F 30.14 in NNE 2.1 mph 4.6 mph 83 % 0.00 in
10:16 74.5 °F 68.3 °F 30.14 in NE 4.5 mph 7.0 mph 81 % 0.00 in
10:21 75.4 °F 68.8 °F 30.14 in ENE 3.2 mph 4.6 mph 80 % 0.00 in
10:26 76.1 °F 68.4 °F 30.14 in NE 1.0 mph 4.0 mph 77 % 0.00 in
10:31 76.9 °F 68.8 °F 30.14 in NE 1.1 mph 4.6 mph 76 % 0.00 in
10:36 77.3 °F 68.4 °F 30.14 in NE 1.4 mph 3.5 mph 74 % 0.00 in
10:41 77.9 °F 68.9 °F 30.15 in North 2.4 mph 6.9 mph 74 % 0.00 in
10:47 78.4 °F 69.8 °F 30.15 in NNE 2.8 mph 5.8 mph 75 % 0.00 in
10:52 78.8 °F 69.8 °F 30.15 in NNE 3.4 mph 4.6 mph 74 % 0.00 in
10:57 79.4 °F 69.6 °F 30.15 in NE 2.7 mph 3.5 mph 72 % 0.00 in
11:02 80.0 °F 69.7 °F 30.15 in North 3.4 mph 6.0 mph 71 % 0.00 in
11:07 80.1 °F 69.0 °F 30.15 in ENE 5.6 mph 8.1 mph 69 % 0.00 in
11:12 80.5 °F 69.8 °F 30.15 in NE 2.7 mph 4.6 mph 70 % 0.00 in
11:17 80.9 °F 70.6 °F 30.15 in North 2.0 mph 3.5 mph 71 % 0.00 in
11:22 81.6 °F 69.6 °F 30.14 in NE 3.7 mph 5.8 mph 67 % 0.00 in
11:32 82.3 °F 70.7 °F 30.15 in NNE 3.7 mph 5.0 mph 68 % 0.00 in
11:38 82.5 °F 69.5 °F 30.14 in ENE 2.7 mph 4.6 mph 65 % 0.00 in
11:43 82.5 °F 70.0 °F 30.15 in NE 2.5 mph 4.6 mph 66 % 0.00 in
11:48 82.1 °F 69.6 °F 30.15 in NE 2.7 mph 3.5 mph 66 % 0.00 in
11:53 82.2 °F 69.7 °F 30.15 in NE 1.6 mph 3.5 mph 66 % 0.00 in
11:58 82.5 °F 69.1 °F 30.15 in North 3.1 mph 8.1 mph 64 % 0.00 in
12:03 82.7 °F 70.2 °F 30.14 in NNE 4.0 mph 6.0 mph 66 % 0.00 in
12:08 82.6 °F 69.2 °F 30.14 in NNE 4.2 mph 6.9 mph 64 % 0.00 in
12:13 82.9 °F 69.0 °F 30.14 in ENE 1.8 mph 4.0 mph 63 % 0.00 in
12:18 83.4 °F 70.4 °F 30.14 in North 1.0 mph 2.3 mph 65 % 0.00 in
12:23 83.7 °F 69.3 °F 30.14 in NNE 2.3 mph 2.3 mph 62 % 0.00 in
12:29 83.8 °F 69.9 °F 30.14 in ENE 1.8 mph 3.5 mph 63 % 0.00 in
12:34 83.8 °F 68.9 °F 30.13 in ENE 2.5 mph 5.0 mph 61 % 0.00 in
12:39 83.7 °F 69.3 °F 30.14 in NNE 2.6 mph 6.0 mph 62 % 0.00 in
12:44 83.6 °F 68.7 °F 30.14 in ENE 2.0 mph 3.5 mph 61 % 0.00 in
12:49 83.6 °F 68.7 °F 30.13 in East 1.8 mph 5.0 mph 61 % 0.00 in
12:54 83.4 °F 68.1 °F 30.13 in ENE 1.3 mph 3.5 mph 60 % 0.00 in
12:59 83.2 °F 67.9 °F 30.13 in NE 1.0 mph 4.6 mph 60 % 0.00 in
13:04 83.4 °F 69.9 °F 30.13 in ENE 1.9 mph 3.5 mph 64 % 0.00 in
13:09 83.4 °F 68.1 °F 30.13 in NE 3.0 mph 4.6 mph 60 % 0.00 in
13:14 83.0 °F 67.7 °F 30.13 in NNE 2.8 mph 5.8 mph 60 % 0.00 in
13:20 82.8 °F 67.5 °F 30.13 in NE 2.1 mph 4.6 mph 60 % 0.00 in
13:25 82.8 °F 68.0 °F 30.12 in ENE 2.3 mph 8.1 mph 61 % 0.00 in
13:30 82.7 °F 67.9 °F 30.12 in ENE 1.7 mph 3.5 mph 61 % 0.00 in
13:35 82.9 °F 69.0 °F 30.12 in NE 1.7 mph 3.5 mph 63 % 0.00 in
13:40 83.0 °F 68.6 °F 30.12 in ENE 3.1 mph 4.6 mph 62 % 0.00 in
13:45 82.9 °F 68.5 °F 30.12 in ENE 3.0 mph 4.0 mph 62 % 0.00 in
13:50 83.1 °F 68.7 °F 30.12 in ENE 1.9 mph 5.8 mph 62 % 0.00 in
13:55 83.2 °F 68.3 °F 30.12 in NE 1.1 mph 3.5 mph 61 % 0.00 in
14:00 83.3 °F 68.9 °F 30.12 in East 1.2 mph 3.5 mph 62 % 0.00 in
14:05 83.1 °F 68.3 °F 30.12 in ENE 1.3 mph 4.6 mph 61 % 0.00 in
14:11 83.0 °F 66.7 °F 30.11 in NE 1.0 mph 5.0 mph 58 % 0.00 in
14:15 82.9 °F 67.6 °F 30.11 in NE 1.0 mph 3.0 mph 60 % 0.00 in
14:21 82.8 °F 67.5 °F 30.11 in ENE 1.0 mph 4.0 mph 60 % 0.00 in
14:26 82.8 °F 68.0 °F 30.11 in ENE 1.0 mph 3.0 mph 61 % 0.00 in
14:30 83.0 °F 66.7 °F 30.11 in ENE 0.3 mph 2.3 mph 58 % 0.00 in
14:35 83.2 °F 67.4 °F 30.11 in Calm   2.0 mph 59 % 0.00 in
14:41 83.5 °F 68.6 °F 30.11 in Calm   2.0 mph 61 % 0.00 in
14:45 83.5 °F 66.7 °F 30.10 in ENE 2.0 mph 4.0 mph 57 % 0.00 in
14:51 83.2 °F 66.3 °F 30.11 in NE 2.0 mph 7.0 mph 57 % 0.00 in
14:55 82.3 °F 67.5 °F 30.10 in Calm   3.0 mph 61 % 0.00 in
15:01 81.4 °F 66.7 °F 30.10 in NE 1.5 mph 3.5 mph 61 % 0.00 in
15:05 80.7 °F 66.9 °F 30.10 in NE 1.0 mph 3.0 mph 63 % 0.00 in
15:11 80.4 °F 68.0 °F 30.09 in Calm   5.0 mph 66 % 0.00 in
15:16 80.7 °F 66.4 °F 30.09 in ENE 1.0 mph 4.0 mph 62 % 0.00 in
15:21 81.1 °F 66.8 °F 30.09 in NE 1.0 mph 4.0 mph 62 % 0.00 in
15:26 81.5 °F 67.3 °F 30.09 in ENE 1.0 mph 5.0 mph 62 % 0.00 in
15:31 81.6 °F 66.8 °F 30.09 in ENE 1.0 mph 3.0 mph 61 % 0.00 in
15:35 81.9 °F 66.6 °F 30.09 in ENE 2.0 mph 5.0 mph 60 % 0.00 in
15:41 82.1 °F 67.3 °F 30.09 in ENE 1.0 mph 3.0 mph 61 % 0.00 in
15:45 81.8 °F 65.6 °F 30.09 in ENE 1.0 mph 4.0 mph 58 % 0.00 in
15:51 81.6 °F 65.9 °F 30.09 in ENE 2.0 mph 5.0 mph 59 % 0.00 in
15:55 81.0 °F 65.8 °F 30.09 in ENE 2.0 mph 4.0 mph 60 % 0.00 in
16:01 80.7 °F 67.4 °F 30.09 in NE 0.4 mph 1.2 mph 64 % 0.00 in
16:05 80.8 °F 66.5 °F 30.09 in Calm   1.0 mph 62 % 0.00 in
16:10 80.8 °F 66.1 °F 30.09 in NE 1.0 mph 2.0 mph 61 % 0.00 in
16:15 80.9 °F 66.2 °F 30.09 in Calm   2.0 mph 61 % 0.00 in
16:20 81.3 °F 68.0 °F 30.09 in NE 0.5 mph 2.3 mph 64 % 0.00 in
16:26 81.6 °F 68.2 °F 30.08 in NE 2.0 mph 5.0 mph 64 % 0.00 in
16:30 82.0 °F 68.6 °F 30.08 in NE 1.0 mph 2.0 mph 64 % 0.00 in
16:35 82.4 °F 68.5 °F 30.08 in ENE 0.9 mph 2.3 mph 63 % 0.00 in
16:41 82.8 °F 68.4 °F 30.08 in ENE 1.0 mph 2.0 mph 62 % 0.00 in
16:46 83.2 °F 68.3 °F 30.08 in Calm   2.0 mph 61 % 0.00 in
16:51 83.2 °F 66.4 °F 30.08 in Calm   2.0 mph 57 % 0.00 in
16:56 83.3 °F 65.9 °F 30.08 in ESE 1.0 mph 5.0 mph 56 % 0.00 in
17:01 83.5 °F 63.5 °F 30.08 in SSE 1.0 mph 3.5 mph 51 % 0.00 in
17:06 83.4 °F 63.4 °F 30.08 in SE 1.0 mph 6.0 mph 51 % 0.00 in
17:11 83.3 °F 64.4 °F 30.08 in SSE 1.0 mph 4.0 mph 53 % 0.00 in
17:16 83.1 °F 63.1 °F 30.08 in SE 0.5 mph 1.2 mph 51 % 0.00 in
17:21 82.4 °F 61.9 °F 30.08 in SSE 3.0 mph 9.0 mph 50 % 0.00 in
17:26 81.5 °F 62.2 °F 30.08 in SE 1.0 mph 9.0 mph 52 % 0.00 in
17:31 81.3 °F 63.6 °F 30.08 in SSE 1.0 mph 3.0 mph 55 % 0.00 in
17:36 81.4 °F 63.7 °F 30.08 in South 1.0 mph 3.0 mph 55 % 0.00 in
17:41 81.2 °F 63.5 °F 30.07 in SSE 3.0 mph 8.0 mph 55 % 0.00 in
17:46 81.1 °F 63.4 °F 30.08 in SSE 2.0 mph 6.0 mph 55 % 0.00 in
17:51 80.7 °F 63.1 °F 30.07 in SE 1.0 mph 5.0 mph 55 % 0.00 in
17:56 80.1 °F 63.0 °F 30.07 in SE 1.0 mph 10.0 mph 56 % 0.00 in
18:01 79.8 °F 63.2 °F 30.07 in SSE 0.2 mph 2.3 mph 57 % 0.00 in
18:06 79.6 °F 63.0 °F 30.07 in SSE 1.0 mph 6.0 mph 57 % 0.00 in
18:11 79.5 °F 63.4 °F 30.07 in SE 1.0 mph 4.0 mph 58 % 0.00 in
18:16 79.1 °F 63.1 °F 30.07 in Calm   3.0 mph 58 % 0.00 in
18:21 78.8 °F 62.8 °F 30.07 in SSE 2.0 mph 7.0 mph 58 % 0.00 in
18:26 78.5 °F 63.0 °F 30.07 in SSE 2.0 mph 4.0 mph 59 % 0.00 in
18:31 78.2 °F 63.2 °F 30.07 in Calm   5.0 mph 60 % 0.00 in
18:36 78.1 °F 62.6 °F 30.07 in South 1.0 mph 4.0 mph 59 % 0.00 in
18:41 77.8 °F 62.8 °F 30.07 in SSE 3.0 mph 6.0 mph 60 % 0.00 in
18:46 77.7 °F 63.1 °F 30.07 in SSE 1.0 mph 4.0 mph 61 % 0.00 in
18:51 77.5 °F 63.5 °F 30.07 in Calm   6.0 mph 62 % 0.00 in
18:56 77.4 °F 63.4 °F 30.07 in Calm   2.0 mph 62 % 0.00 in
19:01 77.1 °F 63.1 °F 30.07 in SSE 0.7 mph 2.3 mph 62 % 0.00 in
19:06 76.9 °F 63.3 °F 30.06 in Calm   5.0 mph 63 % 0.00 in
19:11 76.7 °F 63.6 °F 30.06 in Calm   5.0 mph 64 % 0.00 in
19:16 76.6 °F 63.5 °F 30.06 in SSE 1.0 mph 2.0 mph 64 % 0.00 in
19:21 76.3 °F 63.3 °F 30.06 in SSE 1.0 mph 5.0 mph 64 % 0.00 in
19:26 76.1 °F 63.5 °F 30.06 in SSE 1.0 mph 3.0 mph 65 % 0.00 in
19:31 75.8 °F 63.6 °F 30.06 in SSE 1.0 mph 3.0 mph 66 % 0.00 in
19:36 75.6 °F 63.5 °F 30.06 in SSE 1.0 mph 4.0 mph 66 % 0.00 in
19:41 75.4 °F 63.7 °F 30.06 in SE 1.0 mph 4.0 mph 67 % 0.00 in
19:46 75.2 °F 63.5 °F 30.06 in Calm   3.0 mph 67 % 0.00 in
19:51 74.9 °F 63.6 °F 30.06 in Calm   3.5 mph 68 % 0.00 in
19:56 74.6 °F 63.3 °F 30.06 in SSE 1.7 mph 3.5 mph 68 % 0.00 in
20:01 74.4 °F 63.6 °F 30.06 in Calm   2.3 mph 69 % 0.00 in
20:06 74.2 °F 63.4 °F 30.06 in SSE 0.2 mph   69 % 0.00 in
20:11 74.0 °F 63.6 °F 30.06 in SSE 0.1 mph 1.0 mph 70 % 0.00 in
20:17 73.8 °F 63.4 °F 30.06 in Calm   1.2 mph 70 % 0.00 in
20:22 73.6 °F 63.2 °F 30.06 in SSE 0.2 mph 1.2 mph 70 % 0.00 in
20:27 73.3 °F 63.3 °F 30.06 in Calm   1.0 mph 71 % 0.00 in
20:32 73.2 °F 63.2 °F 30.06 in SE 0.4 mph 2.3 mph 71 % 0.00 in
20:37 72.9 °F 63.3 °F 30.06 in SE 0.1 mph 1.2 mph 72 % 0.00 in
20:42 72.7 °F 63.1 °F 30.06 in Calm     72 % 0.00 in
20:47 72.5 °F 63.4 °F 30.06 in Calm   1.2 mph 73 % 0.00 in
20:52 72.3 °F 63.5 °F 30.06 in South 0.3 mph 2.3 mph 74 % 0.00 in
20:57 72.2 °F 63.4 °F 30.06 in South 0.1 mph 1.2 mph 74 % 0.00 in
21:02 72.1 °F 63.4 °F 30.06 in Calm   1.2 mph 74 % 0.00 in
21:07 71.9 °F 63.5 °F 30.06 in Calm     75 % 0.00 in
21:13 71.7 °F 63.4 °F 30.06 in Calm     75 % 0.00 in
21:18 71.6 °F 63.3 °F 30.06 in Calm     75 % 0.00 in
21:23 71.4 °F 63.1 °F 30.06 in South 0.1 mph 1.2 mph 75 % 0.00 in
21:28 71.3 °F 63.3 °F 30.06 in Calm   1.2 mph 76 % 0.00 in
21:33 71.1 °F 63.1 °F 30.06 in Calm     76 % 0.00 in
21:38 70.9 °F 63.0 °F 30.06 in Calm   1.2 mph 76 % 0.00 in
21:43 70.8 °F 63.2 °F 30.06 in Calm     77 % 0.00 in
21:48 70.7 °F 63.1 °F 30.07 in Calm   1.2 mph 77 % 0.00 in
21:53 70.6 °F 63.0 °F 30.06 in South 0.2 mph 1.2 mph 77 % 0.00 in
21:58 70.5 °F 62.9 °F 30.06 in Calm     77 % 0.00 in
22:04 70.3 °F 62.7 °F 30.06 in Calm     77 % 0.00 in
22:09 70.2 °F 62.6 °F 30.06 in Calm     77 % 0.00 in
22:14 70.1 °F 62.6 °F 30.06 in Calm     77 % 0.00 in
22:19 69.9 °F 62.7 °F 30.06 in South 0.1 mph 1.2 mph 78 % 0.00 in
22:24 69.8 °F 62.6 °F 30.05 in Calm     78 % 0.00 in
22:34 69.4 °F 62.6 °F 30.06 in Calm   1.2 mph 79 % 0.00 in
22:39 69.3 °F 62.5 °F 30.05 in Calm   1.2 mph 79 % 0.00 in
22:44 69.2 °F 62.4 °F 30.06 in Calm     79 % 0.00 in
22:49 69.0 °F 62.2 °F 30.06 in Calm   1.2 mph 79 % 0.00 in
22:55 68.9 °F 62.5 °F 30.06 in Calm   2.3 mph 80 % 0.00 in
23:00 68.8 °F 62.4 °F 30.06 in SW 0.2 mph 1.2 mph 80 % 0.00 in
23:05 68.7 °F 62.6 °F 30.06 in SW 0.4 mph 2.3 mph 81 % 0.00 in
23:10 68.6 °F 62.5 °F 30.06 in SW 0.1 mph 1.2 mph 81 % 0.00 in
23:15 68.5 °F 62.1 °F 30.05 in Calm     80 % 0.00 in
23:20 68.5 °F 62.4 °F 30.05 in Calm     81 % 0.00 in
23:25 68.4 °F 62.3 °F 30.05 in Calm     81 % 0.00 in
23:30 68.3 °F 62.2 °F 30.06 in Calm     81 % 0.00 in
23:35 68.2 °F 62.1 °F 30.06 in Calm     81 % 0.00 in
23:40 68.1 °F 62.4 °F 30.06 in Calm     82 % 0.00 in
23:46 68.1 °F 62.0 °F 30.06 in Calm   1.0 mph 81 % 0.00 in
23:51 68.0 °F 62.3 °F 30.06 in Calm     82 % 0.00 in
23:56 67.9 °F 61.8 °F 30.06 in Calm   1.0 mph 81 % 0.00 in
Crab Meadow Weather
Compliments of Weather Underground - 3 mb

Script developed by  Jim McMurry - jmcmurry@mwt.net Adapted for the template by  Wim van der Kuil - Leuven-Template.eu

Recycling: Out of every $10 spent buying things, $1 (10%) goes for packaging that is thrown away. Packaging represents about 65% of household trash.